Tracking 33165 objects as of 7-Feb-2026
HD Live streaming from Space Station
objects crossing your sky now

STARLINK-5820

Track STARLINK-5820 now!
10-day predictions
STARLINK-5820 is classified as:


NORAD ID: 55781
Int'l Code: 2023-028AS
Perigee: 577.2 km
Apogee: 581.1 km
Inclination: 70.0 °
Period: 96.1 minutes
Semi major axis: 6950 km
RCS: Unknown
Launch date: March 3, 2023
Source: United States (US)
Launch site: AIR FORCE WESTERN TEST RANGE (AFWTR)
Your satellite tracking list
Your tracking list is empty




NASA's NSSDC Master Catalog

Two Line Element Set (TLE):
1 55781U 23028AS  26038.16836922 -.00005957  00000-0 -49173-3 0  9992
2 55781  70.0003 301.3512 0002848 274.5162  85.5672 14.98343488161960
Source of the keplerian elements: AFSPC